User: anonymous   Login
Location: Unspecified
(0.0000°N, 0.0000°E)
Time: 15:06:40
(UTC+00:00)
Language:

USA-159 - Orbit

View from above orbital plane
View from above orbital plane
View from above satellite
View from above satellite

Ground track
Ground track

The orbit data is extracted from the following two-line orbital elements,

1 26880U 01033A   18252.76648364 0.00000000  00000-0  00000-0 0    06
2 26880  10.1201  34.9103 0007646  61.9306 298.1680  1.00270000    03
Epoch (UTC): 09 September 2018 18:23:44
Eccentricity: 0.0007646
inclination: 10.1201°
perigee height: 35754 km
apogee height: 35819 km
right ascension of ascending node: 34.9103°
argument of perigee: 61.9306°
revolutions per day: 1.00270000
mean anomaly at epoch: 298.1680°
orbit number at epoch: 0

The dashed part of the orbit path shows where the satellite is in the earth's shadow,  

DLR